Weather History for Flagstaff, AZ

Change the Weather History Date:

Sunday, October 7, 2012

  Actual Average Record
Temperature  
Mean Temperature 52 °F 50 °F  
Max Temperature 72 °F 65 °F 80 °F (1965)
Min Temperature 31 °F 34 °F 19 °F (2007)
Degree Days  
Heating Degree Days 13 15  
Month to date heating degree days 64 99  
Since 1 July heating degree days 274 416  
Cooling Degree Days 0 0  
Month to date cooling degree days 0 0  
Year to date cooling degree days 164 117  
Growing Degree Days 2 (Base 50)    
Moisture  
Dew Point 22 °F    
Average Humidity 42    
Maximum Humidity 69    
Minimum Humidity 14    
Precipitation  
Precipitation 0.00 in 0.06 in 1.55 in (1924)
Month to date precipitation 0.00 0.42  
Year to date precipitation 10.76 16.99  
Snow  
Snow 0.00 in 0.00 in T in (2011)
Month to date snowfall 0.0 0.1  
Since 1 July snowfall 0.0 0.1  
Snow Depth 0.00 in    
Sea Level Pressure  
Sea Level Pressure 29.99 in    
Wind  
Wind Speed 3 mph (ENE)    
Max Wind Speed 15 mph    
Max Gust Speed 21 mph    
Visibility 10 miles    
Events      
T = Trace of Precipitation, MM = Missing Value Source: NWS Daily Summary

Daily Weather History Graph

Daily Weather History Graph

Search for Another Location

Airport:

Trip Planner

Search our weather history database for the weather conditions in past years. The results will help you decide how hot, cold, wet, or windy it might be!

Date:

Astronomy

Oct. 07, 2012 Rise Set
Actual Time 6:26 AM MST 6:01 PM MST
Civil Twilight 6:01 AM MST 6:26 PM MST
Nautical Twilight 5:31 AM MST 6:56 PM MST
Astronomical Twilight 5:02 AM MST 7:25 PM MST
Moon 11:25 PM MST (10/7) 12:57 PM MST (10/7)
Length of Visible Light 12h 25m
Length of Day
11h 34m
Waning Gibbous, 55% of the Moon is Illuminated
Oct 7
Waning Gibbous
Oct 8
Last Quarter
Oct 15
New
Oct 21
First Quarter
Oct 29
Full

Hourly Weather History & Observations

Time (MST) Temp. Dew Point Humidity Pressure Visibility Wind Dir Wind Speed Gust Speed Precip Events Conditions
12:57 AM 37.0 °F 26.1 °F 65% 29.95 in 10.0 mi Calm Calm - N/A   Clear
1:57 AM 36.0 °F 25.0 °F 64% 29.96 in 10.0 mi Calm Calm - N/A   Clear
2:57 AM 33.1 °F 24.1 °F 70% 29.96 in 10.0 mi Calm Calm - N/A   Clear
3:57 AM 33.1 °F 23.0 °F 66% 29.95 in 10.0 mi Calm Calm - N/A   Clear
4:57 AM 33.1 °F 23.0 °F 66% 29.97 in 10.0 mi Calm Calm - N/A   Clear
6:57 AM 33.1 °F 24.1 °F 70% 30.02 in 10.0 mi Calm Calm - N/A   Clear
7:57 AM 46.9 °F 28.0 °F 48% 29.99 in 10.0 mi NE 4.6 mph - N/A   Clear
8:57 AM 59.0 °F 27.0 °F 29% 30.00 in 10.0 mi ENE 4.6 mph - N/A   Clear
9:57 AM 62.1 °F 26.1 °F 25% 30.00 in 10.0 mi Variable 3.5 mph - N/A   Clear
10:57 AM 63.0 °F 25.0 °F 24% 30.00 in 10.0 mi Variable 4.6 mph - N/A   Clear
11:57 AM 66.9 °F 24.1 °F 20% 29.99 in 10.0 mi Variable 6.9 mph - N/A   Clear
12:57 PM 69.1 °F 24.1 °F 18% 29.96 in 10.0 mi North 6.9 mph - N/A   Clear
1:57 PM 69.1 °F 24.1 °F 18% 29.94 in 10.0 mi Calm Calm - N/A   Clear
2:57 PM 70.0 °F 28.0 °F 21% 29.94 in 10.0 mi WSW 12.7 mph 20.7 mph N/A   Scattered Clouds
3:57 PM 68.0 °F 18.0 °F 15% 29.95 in 10.0 mi East 5.8 mph - N/A   Mostly Cloudy
4:57 PM 66.0 °F 17.1 °F 15% 29.97 in 10.0 mi East 6.9 mph - N/A   Mostly Cloudy
5:57 PM 62.1 °F 18.0 °F 18% 30.00 in 10.0 mi East 4.6 mph - N/A   Clear
6:57 PM 53.1 °F 18.0 °F 25% 30.05 in 10.0 mi East 3.5 mph - N/A   Clear
7:57 PM 48.9 °F 18.0 °F 29% 30.03 in 10.0 mi Calm Calm - N/A   Clear
8:57 PM 45.0 °F 18.0 °F 34% 30.01 in 10.0 mi Calm Calm - N/A   Clear
9:57 PM 42.1 °F 18.0 °F 38% 30.01 in 10.0 mi Calm Calm - N/A   Clear
10:57 PM 39.9 °F 18.0 °F 41% 30.01 in 10.0 mi Calm Calm - N/A   Clear
11:57 PM 37.9 °F 19.0 °F 47% 30.00 in 10.0 mi Calm Calm - N/A   Clear